Flag for Germany Weather past 2 weeks in Schorndorf, Baden-Württemberg, Germany

Now
42 °F

Passing clouds.


Feels Like: 40 °F
Forecast: 36 / 54 °F
Wind: 3 mph from East

Location: Stuttgart-Echterdingen


UV Index: 3 (Moderate)

Visibility: 38 mi


Pressure: 30.31 "Hg

Humidity: 65%

Dew point: 31 °F

Location of SchorndorfLocation

Historic Weather in Schorndorf

°F

Schorndorf temperature yesterday

Maximum temperature yesterday: 52 °F (at 7:00 PM)
Minimum temperature yesterday: 33 °F (at 6:00 AM)
Average temperature yesterday: 43 °F

Past Weeks' High & Low Weather Summary

 TemperatureHumidityPressure
High70 °F (Apr 7, 4:00 PM)93% (Apr 6, 1:00 AM)30.42 "Hg (Apr 6, 1:00 AM)
Low33 °F (Apr 17, 6:00 AM)27% (Apr 4, 6:00 PM)29.62 "Hg (Apr 3, 6:00 PM)
Average53 °F62%30.05 "Hg
* Reported Apr 2 8:00 AM — Apr 17 8:00 AM, Schorndorf, Weather by CustomWeather, © 2014

Note: Actual official high and low records may vary slightly from our data, if they occured in-between our weather recording intervals... More about our weather records

Advertising

Historic Weather Conditions — Data for Previous 24 hours

 ConditionsComfort  
Time TempWeatherWind HumidityBarometerVisibility
8:00 AM
Apr 17
38 °FPassing clouds.1 mph76%30.32 "Hg37 mi
7:00 AM33 °FPartly sunny.1 mph86%30.33 "Hg40 mi
6:00 AM33 °FPassing clouds.No wind81%30.33 "Hg31 mi
4:00 AM35 °FPassing clouds.1 mph80%30.36 "Hg22 mi
3:00 AM35 °FPassing clouds.No wind80%30.37 "Hg25 mi
2:00 AM37 °FPassing clouds.1 mph76%30.38 "Hg25 mi
1:00 AM39 °FPassing clouds.1 mph70%30.38 "Hg25 mi
12:00 AM39 °FPassing clouds.1 mph70%30.38 "Hg25 mi
11:00 PM
Apr 16
42 °FPassing clouds.1 mph62%30.38 "Hg28 mi
10:00 PM44 °FPassing clouds.1 mph59%30.38 "Hg31 mi
9:00 PM45 °FPassing clouds.1 mph55%30.37 "Hg37 mi
8:00 PM49 °FScattered clouds.3 mph48%30.35 "Hg37 mi
7:00 PM52 °FPartly sunny.2 mph42%30.35 "Hg37 mi
6:00 PM51 °FPartly sunny.3 mph42%30.35 "Hg37 mi
5:00 PM51 °FPartly sunny.5 mph43%30.36 "Hg37 mi
4:00 PM50 °FScattered clouds.5 mph45%30.37 "Hg37 mi
3:00 PM49 °FPartly sunny.5 mph47%30.39 "Hg37 mi
2:00 PM49 °FPartly sunny.6 mph51%30.38 "Hg28 mi
1:00 PM47 °FScattered clouds.5 mph54%30.40 "Hg25 mi
12:00 PM46 °FPassing clouds.3 mph57%30.40 "Hg25 mi
11:00 AM45 °FPassing clouds.3 mph65%30.41 "Hg22 mi
10:00 AM42 °FPassing clouds.3 mph69%30.42 "Hg19 mi
9:00 AM39 °FPassing clouds.1 mph76%30.42 "Hg19 mi
Weather by CustomWeather, © 2014

See weather overview